Regional Weather Roundup
Issued by NWS

Home | Current Version | Previous Version | Text Only | Print | Product List | Glossary On
Versions: 1 2 3 4 5 6 7 8 9 10 11 12 13 14 15 16 17 18 19 20 21 22 23 24 25 26 27 28 29 30 31 32 33 34 35 36 37 38 39 40 41 42 43 44 45 46 47 48 49 50
421
ASCA42 TJSJ 300410
RWRPR
PUERTO RICO/U.S. VIRGIN ISLANDS HOURLY WEATHER ROUNDUP
NATIONAL WEATHER SERVICE SAN JUAN PR
1200 AM AST THU MAR 30 2017

PRZ001>002-007>008-010-300500-
PUERTO RICO

CITY           SKY/WX    TMP DP  RH WIND       PRES   REMARKS
SAN JUAN LMM   PTCLDY    79  72  78 N7        29.99S
PONCE          PTCLDY    75  72  88 CALM      30.00F
AGUADILLA      PTCLDY    75  68  78 E8        30.00F
CEIBA          CLEAR     75  72  88 N6        30.00F
$$

VIZ001>002-300500-
U.S. VIRGIN ISLANDS

CITY           SKY/WX    TMP DP  RH WIND       PRES   REMARKS
CHARLOTTE AMA  MOCLDY    75  72  88 N12G23    29.97S
CHRISTIANSTED  MOCLDY    79  72  78 N7        29.98S
$$

HOURLY WEATHER ROUNDUP FOR THE NEWS MEDIA

CITY           SKY/WX    TMP DP  RH WIND       PRES   REMARKS
ORLANDO        PTCLDY    73  58  59 SE6       30.04S
NEW YORK       PTCLDY    43  22  43 N16G25    30.24R
NEWARK         CLEAR     43  25  49 NE13      30.24R
CHICAGO        LGT RAIN  45  38  76 E12       30.04F
HARTFORD       CLEAR     37  22  54 VRB6      30.15R WCI  32
BOSTON         PTCLDY    37  24  59 NW15      30.16S WCI  28
DALLAS         PTCLDY    60  47  61 NW15G24   29.85R
PHILADELPHIA   PTCLDY    48  25  40 N13       30.24R
LOS ANGELES    CLEAR     63  53  70 W5        30.01R
WASHINGTON DC  PTCLDY    50  33  52 NE7       30.19F



USA.gov is the U.S. government's official web portal to all federal, state and local government web resources and services.